STARLINK-3139, 49425

Orbit data source: Space-Track

STARLINK-3139, 49425 is a payload satellite owned by SpaceX/Seattle (US) in LEO that was launched on Sat, 13 Nov 2021 UTC via an FALCON 9 launch vehicle from the Air Force Eastern Test Range (AFETR). Payload-class satellites include a variety of spacecraft equipped with specific instruments for various scientific and technological missions. These include communications satellites like Starlink; space stations such as the ISS; scientific satellites like the Hubble; Earth observation satellites from companies like Planet Labs, Umbra, and HawkEye 360; GPS; miniature CubeSats for education and research; and military/defense satellites.

Loading next visibility...
Identifier
49425, 2021-104T
Orbit
LEO
Country
Flag of USUS
Related business
Manufacturer
SpaceX/Seattle
Mission
Operational Commercial Communications
Bus & Motor
STARLINK, Unknown motor
Mass
290 kg wet, ~270 kg dry
Launch date (UTC)
2021-11-13 (5 years ago)
Launch vehicle
FALCON 9
Launch site
Air Force Eastern Test Range (AFETR)
Object type
Payload
Rocket body
Debris
Shape & HBR
Box + 1 Pan, 10.1 m
Radar Cross Section
13.562 m², Large (>1 m²)

Expand to show TLE details & history
Last TLE update: 1 week ago

TLE from 1 week ago
0 STARLINK-3139
1 49425U 21104T   26154.45697491  .00000607  00000-0  56248-4 0  9997
2 49425  53.1918 204.0884 0001257  81.1694 278.9440 15.08839090251581
Epoch: 2026-06-03T10:58Z
TLE epoch observation values (Epoch: 2026-06-03T10:58:02.632Z)
Latitude
-0.00002°
Longitude
147.6621°
Altitude
540.506 km
Speed
7.593 km/s
True Right ascension
13h 36m 21s
True Declination
0° 00' 00"
Sunlit
Object was in full shadow at epoch
Visualization orbit readout
Latitude
Unknown
Longitude
Unknown
Altitude
Unknown
Speed
Unknown
Apparent Right ascension
Unknown
Apparent Declination
Unknown
Sunlit
N/A
Visualization observer readout
Local Sidereal Time
16:14:10
Azimuth
Unknown
Elevation
Unknown
Doppler factor
Unknown
Orbital elements
Apogee altitude
540.865 km
Perigee altitude
539.126 km
Semi-major axis
6,918.132 km
Eccentricity
0.00013
Inclination
53.1918°
RAAN
204.0884°
Arg. of periapsis
81.1694°
True anomaly
278.92977°
Mean anomaly
278.944°
Eccentric anomaly
278.93689°
Mean motion
3.7719 °/min
Orbital period
95.44 mins
BSTAR
0.000056248
Loading maneuver chart data...
Computing Atmospheric mass density...
Loading historical data...
Loading historical data...
Loading historical data...
Loading historical data...
Loading historical data...
Loading historical data...
Loading historical data...

Documentation

Showing up to 5 results
|